| time (UTC) | temp C | wind direction | speed KPH | gust KPH | rain 1hr cm | rain 24hr cm | rain mn cm | humidity % | barometer mb |
| 20260510104419 | 17 | 38 | 0.0 | 0.0 | 0.00 | 0.00 | 0.00 | 99 | 1014.7 |
| 20260510103916 | 17 | 38 | 0.0 | 0.0 | 0.00 | 0.00 | 0.00 | 99 | 1014.7 |
| 20260510103414 | 17 | 41 | 0.0 | 0.0 | 0.00 | 0.00 | 0.00 | 99 | 1014.4 |
| 20260510102908 | 17 | 47 | 0.0 | 0.0 | 0.00 | 0.00 | 0.00 | 99 | 1014.7 |
| 20260510102404 | 17 | 39 | 0.0 | 0.0 | 0.00 | 0.00 | 0.00 | 99 | 1014.5 |
| 20260510101902 | 17 | 21 | 3.2 | 3.2 | 0.00 | 0.00 | 0.00 | 99 | 1014.4 |
| 20260510101400 | 17 | 28 | 0.0 | 0.0 | 0.00 | 0.00 | 0.00 | 99 | 1014.4 |
| 20260510100856 | 17 | 46 | 0.0 | 0.0 | 0.00 | 0.00 | 0.00 | 99 | 1014.4 |
| 20260510100354 | 18 | 18 | 0.0 | 0.0 | 0.00 | 0.00 | 0.00 | 99 | 1014.1 |
| 20260510095850 | 18 | 16 | 0.0 | 0.0 | 0.00 | 0.00 | 0.00 | 99 | 1014.4 |
| 20260510095344 | 18 | 16 | 0.0 | 0.0 | 0.00 | 0.00 | 0.00 | 99 | 1014.3 |
| 20260510094844 | 18 | 16 | 0.0 | 0.0 | 0.00 | 0.00 | 0.00 | 99 | 1014.2 |
| 20260510094340 | 18 | 43 | 0.0 | 0.0 | 0.00 | 0.00 | 0.00 | 99 | 1014.3 |
| 20260510093836 | 18 | 44 | 0.0 | 0.0 | 0.00 | 0.00 | 0.00 | 99 | 1014.2 |
| 20260510093332 | 18 | 11 | 0.0 | 0.0 | 0.00 | 0.00 | 0.00 | 99 | 1014.2 |
| 20260510092828 | 18 | 15 | 0.0 | 0.0 | 0.00 | 0.00 | 0.00 | 99 | 1014.2 |
| 20260510092324 | 18 | 14 | 0.0 | 0.0 | 0.00 | 0.00 | 0.00 | 99 | 1014.1 |
| 20260510091820 | 18 | 15 | 0.0 | 0.0 | 0.00 | 0.00 | 0.00 | 99 | 1014.2 |
| 20260510091318 | 18 | 22 | 0.0 | 0.0 | 0.00 | 0.00 | 0.00 | 99 | 1014.0 |
| 20260510090814 | 18 | 22 | 0.0 | 0.0 | 0.00 | 0.00 | 0.00 | 99 | 1014.3 |
| 20260510090311 | 18 | 22 | 0.0 | 0.0 | 0.00 | 0.00 | 0.00 | 99 | 1014.3 |
| 20260510085806 | 18 | 22 | 0.0 | 0.0 | 0.00 | 0.00 | 0.00 | 99 | 1014.3 |
| 20260510085301 | 18 | 22 | 0.0 | 0.0 | 0.00 | 0.00 | 0.00 | 99 | 1014.3 |
| 20260510084757 | 18 | 22 | 0.0 | 0.0 | 0.00 | 0.00 | 0.00 | 99 | 1014.2 |
| 20260510084254 | 18 | 22 | 0.0 | 0.0 | 0.00 | 0.00 | 0.00 | 99 | 1014.2 |
| 20260510083751 | 18 | 22 | 0.0 | 0.0 | 0.00 | 0.00 | 0.00 | 99 | 1014.0 |
| 20260510083248 | 18 | 22 | 0.0 | 0.0 | 0.00 | 0.00 | 0.00 | 99 | 1014.1 |
| 20260510082743 | 18 | 22 | 0.0 | 0.0 | 0.00 | 0.00 | 0.00 | 99 | 1014.1 |
| 20260510082240 | 18 | 22 | 0.0 | 0.0 | 0.00 | 0.00 | 0.00 | 99 | 1014.2 |
| 20260510081739 | 18 | 22 | 0.0 | 0.0 | 0.00 | 0.00 | 0.00 | 99 | 1014.3 |
| 20260510081235 | 18 | 22 | 0.0 | 0.0 | 0.00 | 0.00 | 0.00 | 99 | 1014.2 |
| 20260510080731 | 18 | 2 | 0.0 | 0.0 | 0.00 | 0.00 | 0.00 | 99 | 1014.2 |
| 20260510080227 | 18 | 2 | 0.0 | 0.0 | 0.00 | 0.00 | 0.00 | 99 | 1014.0 |
| 20260510075723 | 18 | 1 | 0.0 | 0.0 | 0.00 | 0.00 | 0.00 | 99 | 1013.9 |
| 20260510075221 | 18 | 1 | 0.0 | 0.0 | 0.00 | 0.00 | 0.00 | 99 | 1013.9 |
| 20260510074718 | 18 | 1 | 0.0 | 0.0 | 0.00 | 0.00 | 0.00 | 99 | 1014.0 |
| 20260510074214 | 18 | 15 | 0.0 | 0.0 | 0.00 | 0.00 | 0.00 | 99 | 1014.0 |
| 20260510073711 | 18 | 13 | 0.0 | 0.0 | 0.00 | 0.00 | 0.00 | 99 | 1014.0 |
| 20260510073206 | 18 | 29 | 0.0 | 0.0 | 0.00 | 0.00 | 0.00 | 99 | 1013.7 |
| 20260510072703 | 18 | 28 | 0.0 | 0.0 | 0.00 | 0.00 | 0.00 | 99 | 1013.7 |
| 20260510072159 | 18 | 28 | 0.0 | 0.0 | 0.00 | 0.00 | 0.00 | 99 | 1013.9 |
| 20260510071656 | 18 | 30 | 0.0 | 0.0 | 0.00 | 0.00 | 0.00 | 99 | 1013.7 |
| 20260510071153 | 18 | 28 | 0.0 | 0.0 | 0.00 | 0.00 | 0.00 | 99 | 1013.4 |
| 20260510070650 | 18 | 26 | 0.0 | 0.0 | 0.00 | 0.00 | 0.00 | 99 | 1013.4 |
| 20260510070148 | 18 | 18 | 0.0 | 0.0 | 0.00 | 0.00 | 0.00 | 99 | 1013.4 |
| 20260510065643 | 18 | 19 | 0.0 | 0.0 | 0.00 | 0.00 | 0.00 | 99 | 1013.5 |
| 20260510065139 | 18 | 19 | 0.0 | 0.0 | 0.00 | 0.00 | 0.00 | 99 | 1013.6 |
| 20260510064636 | 18 | 19 | 0.0 | 0.0 | 0.00 | 0.00 | 0.00 | 99 | 1013.8 |
| 20260510064133 | 18 | 18 | 0.0 | 0.0 | 0.00 | 0.00 | 0.00 | 99 | 1013.8 |
| 20260510063630 | 18 | 30 | 0.0 | 0.0 | 0.00 | 0.00 | 0.00 | 99 | 1013.9 |
| 20260510063126 | 18 | 1 | 0.0 | 0.0 | 0.00 | 0.00 | 0.00 | 99 | 1014.0 |
| 20260510062622 | 18 | 43 | 0.0 | 0.0 | 0.00 | 0.00 | 0.00 | 99 | 1013.9 |
| 20260510062118 | 18 | 44 | 0.0 | 0.0 | 0.00 | 0.00 | 0.00 | 99 | 1013.8 |
| 20260510061614 | 18 | 44 | 0.0 | 0.0 | 0.00 | 0.00 | 0.00 | 99 | 1013.8 |
| 20260510061112 | 18 | 44 | 0.0 | 0.0 | 0.00 | 0.00 | 0.00 | 99 | 1013.9 |
| 20260510060608 | 18 | 44 | 0.0 | 0.0 | 0.00 | 0.00 | 0.00 | 99 | 1014.0 |
| 20260510060105 | 18 | 44 | 0.0 | 0.0 | 0.00 | 0.00 | 0.00 | 99 | 1014.0 |
| 20260510055600 | 18 | 44 | 0.0 | 0.0 | 0.00 | 0.00 | 0.00 | 99 | 1014.1 |
| 20260510055059 | 18 | 44 | 0.0 | 0.0 | 0.00 | 0.00 | 0.00 | 99 | 1013.8 |
| 20260510054554 | 18 | 44 | 0.0 | 0.0 | 0.00 | 0.00 | 0.00 | 99 | 1013.8 |
| 20260510054050 | 18 | 44 | 0.0 | 0.0 | 0.00 | 0.00 | 0.00 | 99 | 1014.3 |
| 20260510053549 | 18 | 44 | 0.0 | 0.0 | 0.00 | 0.00 | 0.00 | 99 | 1014.0 |
| 20260510053047 | 18 | 44 | 0.0 | 0.0 | 0.00 | 0.00 | 0.00 | 99 | 1014.1 |
| 20260510052542 | 18 | 44 | 0.0 | 0.0 | 0.00 | 0.00 | 0.00 | 99 | 1014.1 |
| 20260510052038 | 18 | 44 | 0.0 | 0.0 | 0.00 | 0.00 | 0.00 | 99 | 1014.0 |
| 20260510051534 | 18 | 44 | 0.0 | 0.0 | 0.00 | 0.00 | 0.00 | 99 | 1014.0 |
| 20260510051031 | 18 | 44 | 0.0 | 0.0 | 0.00 | 0.00 | 0.00 | 99 | 1014.0 |
| 20260510050528 | 18 | 42 | 0.0 | 0.0 | 0.00 | 0.00 | 0.00 | 99 | 1014.1 |
| 20260510050026 | 18 | 42 | 0.0 | 0.0 | 0.00 | 7.37 | 7.37 | 99 | 1014.1 |
| 20260510045523 | 18 | 42 | 0.0 | 0.0 | 0.00 | 7.37 | 7.37 | 99 | 1014.5 |
| 20260510045018 | 18 | 42 | 0.0 | 0.0 | 0.00 | 7.37 | 7.37 | 99 | 1014.3 |
| 20260510044515 | 18 | 42 | 0.0 | 0.0 | 0.00 | 7.37 | 7.37 | 99 | 1014.0 |
| 20260510044013 | 18 | 42 | 0.0 | 0.0 | 0.00 | 7.37 | 7.37 | 99 | 1014.2 |
| 20260510043513 | 18 | 42 | 0.0 | 0.0 | 0.00 | 7.37 | 7.37 | 99 | 1014.0 |
| 20260510043009 | 18 | 42 | 0.0 | 0.0 | 0.00 | 7.37 | 7.37 | 99 | 1014.0 |
| 20260510042503 | 18 | 42 | 0.0 | 0.0 | 0.00 | 7.37 | 7.37 | 99 | 1014.0 |
| 20260510041958 | 18 | 42 | 0.0 | 0.0 | 0.00 | 7.37 | 7.37 | 99 | 1013.9 |
| 20260510041456 | 18 | 42 | 0.0 | 1.6 | 0.00 | 7.37 | 7.37 | 99 | 1013.8 |
| 20260510040954 | 18 | 43 | 0.0 | 0.0 | 0.00 | 7.37 | 7.37 | 99 | 1013.7 |
| 20260510040450 | 18 | 44 | 0.0 | 0.0 | 0.00 | 7.37 | 7.37 | 99 | 1013.7 |
| 20260510035946 | 18 | 44 | 0.0 | 0.0 | 0.00 | 7.37 | 7.37 | 99 | 1013.9 |
| 20260510035442 | 18 | 43 | 0.0 | 0.0 | 0.00 | 7.37 | 7.37 | 99 | 1013.8 |
| 20260510034942 | 18 | 43 | 0.0 | 0.0 | 0.00 | 7.37 | 7.37 | 99 | 1013.8 |
| 20260510034441 | 18 | 43 | 0.0 | 0.0 | 0.00 | 7.37 | 7.37 | 99 | 1014.1 |
| 20260510033937 | 18 | 43 | 0.0 | 0.0 | 0.00 | 7.37 | 7.37 | 99 | 1014.2 |
| 20260510033433 | 18 | 43 | 0.0 | 0.0 | 0.00 | 7.37 | 7.37 | 99 | 1014.0 |
| 20260510032931 | 18 | 43 | 0.0 | 0.0 | 0.00 | 7.37 | 7.37 | 99 | 1013.9 |
| 20260510032428 | 18 | 43 | 0.0 | 0.0 | 0.00 | 7.37 | 7.37 | 99 | 1014.0 |
| 20260510031928 | 18 | 43 | 0.0 | 0.0 | 0.00 | 7.37 | 7.37 | 99 | 1014.3 |
| 20260510031423 | 18 | 45 | 0.0 | 0.0 | 0.00 | 7.37 | 7.37 | 99 | 1014.0 |
| 20260510030919 | 18 | 45 | 0.0 | 0.0 | 0.00 | 7.37 | 7.37 | 99 | 1014.1 |
| 20260510030415 | 18 | 44 | 0.0 | 0.0 | 0.00 | 7.37 | 7.37 | 99 | 1014.2 |
| 20260510025913 | 18 | 45 | 0.0 | 0.0 | 0.00 | 7.37 | 7.37 | 99 | 1014.3 |
| 20260510025410 | 18 | 44 | 0.0 | 0.0 | 0.00 | 7.37 | 7.37 | 99 | 1014.3 |
| 20260510024907 | 18 | 43 | 0.0 | 0.0 | 0.00 | 7.37 | 7.37 | 99 | 1014.3 |
| 20260510024403 | 18 | 42 | 1.6 | 1.6 | 0.00 | 7.37 | 7.37 | 99 | 1014.1 |
| 20260510023859 | 18 | 70 | 0.0 | 0.0 | 0.00 | 7.37 | 7.37 | 99 | 1013.6 |
| 20260510023356 | 18 | 71 | 0.0 | 0.0 | 0.00 | 7.37 | 7.37 | 99 | 1013.8 |
| 20260510022853 | 19 | 70 | 0.0 | 0.0 | 0.00 | 7.37 | 7.37 | 99 | 1014.0 |
| 20260510022352 | 19 | 72 | 1.6 | 1.6 | 0.00 | 7.37 | 7.37 | 99 | 1013.9 |
| 20260510021851 | 18 | 28 | 0.0 | 0.0 | 0.00 | 7.37 | 7.37 | 99 | 1014.0 |
| 20260510021350 | 18 | 353 | 0.0 | 1.6 | 0.00 | 7.37 | 7.37 | 99 | 1014.0 |
| 20260510020846 | 18 | 17 | 0.0 | 0.0 | 0.00 | 7.37 | 7.37 | 99 | 1013.4 |
| 20260510020346 | 18 | 130 | 0.0 | 0.0 | 0.00 | 7.37 | 7.37 | 99 | 1013.3 |
| 20260510015842 | 19 | 130 | 0.0 | 0.0 | 0.00 | 7.37 | 7.37 | 99 | 1013.4 |
| 20260510015338 | 19 | 131 | 0.0 | 0.0 | 0.00 | 7.37 | 7.37 | 99 | 1013.6 |
| 20260510014833 | 19 | 133 | 1.6 | 1.6 | 0.00 | 7.37 | 7.37 | 99 | 1013.9 |
| 20260510014331 | 19 | 44 | 0.0 | 0.0 | 0.00 | 7.37 | 7.37 | 99 | 1014.0 |
| 20260510013827 | 19 | 45 | 0.0 | 0.0 | 0.00 | 7.37 | 7.37 | 99 | 1014.1 |
| 20260510013322 | 19 | 108 | 0.0 | 0.0 | 0.00 | 7.37 | 7.37 | 99 | 1014.0 |
| 20260510012818 | 19 | 61 | 0.0 | 0.0 | 0.00 | 7.37 | 7.37 | 99 | 1013.9 |
| 20260510012317 | 19 | 333 | 0.0 | 0.0 | 0.00 | 7.37 | 7.37 | 99 | 1014.3 |
| 20260510011812 | 19 | 334 | 0.0 | 0.0 | 0.00 | 7.37 | 7.37 | 99 | 1013.9 |
| 20260510011308 | 19 | 1 | 1.6 | 1.6 | 0.00 | 7.37 | 7.37 | 99 | 1013.4 |
| 20260510010805 | 19 | 29 | 0.0 | 0.0 | 0.00 | 7.37 | 7.37 | 99 | 1013.4 |
| 20260510010302 | 19 | 125 | 0.0 | 0.0 | 0.00 | 7.37 | 7.37 | 99 | 1013.7 |
| 20260510005759 | 19 | 127 | 1.6 | 1.6 | 0.18 | 7.37 | 7.37 | 99 | 1013.5 |
| 20260510005255 | 19 | 14 | 0.0 | 0.0 | 0.18 | 7.37 | 7.37 | 99 | 1013.5 |
| 20260510004753 | 19 | 14 | 0.0 | 0.0 | 0.00 | 7.34 | 7.34 | 99 | 1013.5 |
| 20260510004250 | 19 | 15 | 0.0 | 0.0 | 0.00 | 7.34 | 7.34 | 99 | 1013.3 |
| 20260510003747 | 19 | 359 | 0.0 | 0.0 | 0.00 | 7.34 | 7.34 | 99 | 1013.2 |
| 20260510003244 | 19 | 11 | 0.0 | 0.0 | 0.00 | 7.34 | 7.34 | 99 | 1013.2 |
| 20260510002742 | 19 | 333 | 3.2 | 3.2 | 0.00 | 7.34 | 7.34 | 99 | 1012.6 |
| 20260510002240 | 18 | 62 | 0.0 | 0.0 | 0.00 | 7.34 | 7.34 | 99 | 1012.6 |
| 20260510001737 | 18 | 133 | 1.6 | 1.6 | 0.00 | 7.34 | 7.34 | 99 | 1012.9 |
| 20260510001236 | 18 | 105 | 0.0 | 1.6 | 0.00 | 7.34 | 7.34 | 99 | 1012.5 |
| 20260510000731 | 18 | 100 | 0.0 | 0.0 | 0.18 | 7.34 | 7.34 | 99 | 1012.6 |
| 20260510000228 | 18 | 75 | 0.0 | 0.0 | 0.18 | 7.34 | 7.34 | 99 | 1012.2 |
| 20260509235725 | 18 | 25 | 0.0 | 0.0 | 0.00 | 7.32 | 7.32 | 99 | 1012.3 |
| 20260509235221 | 18 | 46 | 0.0 | 0.0 | 0.00 | 7.32 | 7.32 | 99 | 1012.8 |
| 20260509234717 | 18 | 111 | 0.0 | 0.0 | 0.00 | 7.32 | 7.32 | 99 | 1013.0 |
| 20260509234215 | 18 | 53 | 0.0 | 0.0 | 0.00 | 7.32 | 7.32 | 99 | 1012.8 |
| 20260509233713 | 18 | 52 | 0.0 | 0.0 | 0.00 | 7.32 | 7.32 | 99 | 1012.8 |
| 20260509233210 | 18 | 13 | 0.0 | 1.6 | 0.13 | 7.32 | 7.32 | 99 | 1012.8 |
| 20260509232706 | 18 | 179 | 0.0 | 0.0 | 0.30 | 7.32 | 7.32 | 99 | 1012.7 |
| 20260509232203 | 18 | 195 | 0.0 | 0.0 | 0.18 | 7.29 | 7.29 | 99 | 1012.7 |
| 20260509231700 | 18 | 255 | 3.2 | 3.2 | 0.00 | 7.26 | 7.26 | 99 | 1012.5 |
| 20260509231157 | 18 | 113 | 0.0 | 1.6 | 0.13 | 7.26 | 7.26 | 99 | 1012.3 |
| 20260509230654 | 18 | 141 | 0.0 | 0.0 | 0.13 | 7.26 | 7.26 | 99 | 1012.5 |
| 20260509230151 | 18 | 136 | 0.0 | 0.0 | 0.00 | 7.24 | 7.24 | 99 | 1012.6 |
| 20260509225647 | 18 | 136 | 0.0 | 0.0 | 0.18 | 7.24 | 7.24 | 99 | 1012.6 |
| 20260509225142 | 18 | 138 | 1.6 | 1.6 | 0.18 | 7.24 | 7.24 | 99 | 1012.9 |
| 20260509224638 | 18 | 113 | 0.0 | 0.0 | 0.13 | 7.21 | 7.21 | 99 | 1013.0 |
| 20260509224135 | 18 | 188 | 3.2 | 3.2 | 0.13 | 7.21 | 7.21 | 99 | 1013.0 |
| 20260509223632 | 18 | 21 | 0.0 | 0.0 | 0.18 | 7.19 | 7.19 | 99 | 1012.7 |
| 20260509223130 | 18 | 31 | 0.0 | 0.0 | 0.30 | 7.19 | 7.19 | 99 | 1012.6 |
| 20260509222626 | 18 | 29 | 0.0 | 1.6 | 0.30 | 7.16 | 7.16 | 99 | 1012.7 |
| 20260509222121 | 18 | 337 | 0.0 | 0.0 | 0.30 | 7.14 | 7.14 | 99 | 1012.9 |
| 20260509221618 | 18 | 51 | 1.6 | 1.6 | 0.30 | 7.11 | 7.11 | 99 | 1012.9 |
| 20260509221114 | 18 | 22 | 0.0 | 0.0 | 0.48 | 7.09 | 7.09 | 99 | 1013.1 |
| 20260509220610 | 18 | 330 | 1.6 | 3.2 | 0.48 | 7.06 | 7.06 | 99 | 1013.2 |
| 20260509220107 | 18 | 139 | 0.0 | 1.6 | 0.48 | 7.04 | 7.04 | 99 | 1012.9 |
| 20260509215601 | 18 | 165 | 1.6 | 1.6 | 0.30 | 6.99 | 6.99 | 99 | 1012.9 |
| 20260509215059 | 18 | 323 | 1.6 | 1.6 | 0.30 | 6.96 | 6.96 | 99 | 1012.8 |
| 20260509214556 | 18 | 19 | 3.2 | 3.2 | 0.30 | 6.93 | 6.93 | 99 | 1012.4 |
| 20260509214053 | 18 | 121 | 1.6 | 1.6 | 0.30 | 6.91 | 6.91 | 99 | 1012.6 |
| 20260509213549 | 18 | 166 | 3.2 | 3.2 | 0.30 | 6.88 | 6.88 | 99 | 1012.4 |
| 20260509213046 | 18 | 359 | 3.2 | 3.2 | 0.18 | 6.86 | 6.86 | 99 | 1012.2 |
| 20260509212543 | 18 | 113 | 0.0 | 0.0 | 0.00 | 6.83 | 6.83 | 99 | 1012.3 |
| 20260509212040 | 18 | 1 | 0.0 | 0.0 | 0.00 | 6.83 | 6.83 | 99 | 1012.3 |
| 20260509211535 | 18 | 316 | 1.6 | 1.6 | 0.00 | 6.83 | 6.83 | 99 | 1012.3 |
| 20260509211032 | 18 | 157 | 0.0 | 1.6 | 0.13 | 6.83 | 6.83 | 99 | 1012.2 |
| 20260509210529 | 18 | 3 | 0.0 | 0.0 | 0.13 | 6.83 | 6.83 | 99 | 1012.1 |
| 20260509210026 | 18 | 355 | 0.0 | 0.0 | 0.00 | 6.81 | 6.81 | 99 | 1012.3 |
| 20260509205525 | 18 | 203 | 1.6 | 1.6 | 0.18 | 6.81 | 6.81 | 99 | 1012.0 |
| 20260509205021 | 18 | 7 | 0.0 | 0.0 | 0.18 | 6.81 | 6.81 | 99 | 1012.2 |
| 20260509204518 | 18 | 125 | 0.0 | 0.0 | 0.13 | 6.78 | 6.78 | 99 | 1011.9 |
| 20260509204014 | 18 | 19 | 1.6 | 1.6 | 0.30 | 6.78 | 6.78 | 99 | 1011.8 |
| 20260509203510 | 18 | 91 | 0.0 | 0.0 | 0.30 | 6.76 | 6.76 | 99 | 1011.7 |
| 20260509203009 | 18 | 72 | 0.0 | 0.0 | 0.30 | 6.73 | 6.73 | 99 | 1012.1 |
| 20260509202509 | 18 | 121 | 1.6 | 1.6 | 0.36 | 6.71 | 6.71 | 99 | 1012.4 |
| 20260509202005 | 18 | 138 | 1.6 | 1.6 | 0.18 | 6.68 | 6.68 | 99 | 1012.9 |
| 20260509201459 | 18 | 60 | 0.0 | 0.0 | 0.00 | 6.65 | 6.65 | 99 | 1012.9 |
| 20260509200957 | 18 | 302 | 0.0 | 0.0 | 0.13 | 6.65 | 6.65 | 99 | 1012.7 |
| 20260509200452 | 18 | 352 | 1.6 | 3.2 | 0.30 | 6.65 | 6.65 | 99 | 1012.0 |
| 20260509195949 | 18 | 51 | 0.0 | 0.0 | 0.61 | 6.63 | 6.63 | 99 | 1012.4 |
| 20260509195444 | 18 | 74 | 1.6 | 3.2 | 0.89 | 6.60 | 6.60 | 99 | 1012.8 |
| 20260509194944 | 18 | 7 | 3.2 | 4.8 | 0.71 | 6.55 | 6.55 | 99 | 1013.0 |
| 20260509194440 | 18 | 68 | 1.6 | 1.6 | 0.61 | 6.45 | 6.45 | 99 | 1013.7 |
| 20260509193937 | 18 | 278 | 3.2 | 4.8 | 0.66 | 6.43 | 6.43 | 99 | 1013.9 |
| 20260509193436 | 18 | 142 | 0.0 | 0.0 | 0.61 | 6.38 | 6.38 | 99 | 1013.6 |
| 20260509192933 | 18 | 99 | 0.0 | 0.0 | 0.61 | 6.32 | 6.32 | 99 | 1013.5 |
| 20260509192430 | 18 | 197 | 1.6 | 1.6 | 0.61 | 6.27 | 6.27 | 99 | 1013.6 |
| 20260509191924 | 18 | 23 | 0.0 | 0.0 | 0.43 | 6.22 | 6.22 | 99 | 1013.6 |
| 20260509191420 | 18 | 23 | 0.0 | 0.0 | 0.43 | 6.17 | 6.17 | 99 | 1013.3 |
| 20260509190916 | 18 | 19 | 0.0 | 0.0 | 0.66 | 6.15 | 6.15 | 99 | 1013.4 |
| 20260509190414 | 18 | 0 | 0.0 | 0.0 | 0.48 | 6.10 | 6.10 | 99 | 1013.2 |
| 20260509185911 | 18 | 85 | 0.0 | 0.0 | 0.48 | 6.07 | 6.07 | 99 | 1013.2 |
| 20260509185409 | 18 | 63 | 0.0 | 0.0 | 0.30 | 6.02 | 6.02 | 99 | 1013.7 |
| 20260509184905 | 18 | 63 | 0.0 | 0.0 | 0.30 | 5.99 | 5.99 | 99 | 1013.7 |
| 20260509184402 | 18 | 35 | 0.0 | 0.0 | 0.18 | 5.97 | 5.97 | 99 | 1013.7 |
| 20260509183859 | 18 | 5 | 0.0 | 1.6 | 0.13 | 5.94 | 5.94 | 99 | 1014.1 |
| 20260509183353 | 18 | 209 | 0.0 | 0.0 | 0.13 | 5.94 | 5.94 | 99 | 1013.6 |
| 20260509182849 | 18 | 106 | 0.0 | 0.0 | 0.00 | 5.92 | 5.92 | 99 | 1013.2 |
| 20260509182347 | 18 | 46 | 0.0 | 0.0 | 0.00 | 5.92 | 5.92 | 99 | 1013.5 |
| 20260509181844 | 18 | 73 | 0.0 | 0.0 | 0.00 | 5.92 | 5.92 | 99 | 1013.3 |
| 20260509181341 | 18 | 51 | 0.0 | 0.0 | 0.00 | 5.92 | 5.92 | 99 | 1013.4 |
| 20260509180839 | 18 | 51 | 0.0 | 0.0 | 0.00 | 5.92 | 5.92 | 99 | 1013.6 |
| 20260509180335 | 18 | 214 | 0.0 | 0.0 | 0.00 | 5.92 | 5.92 | 99 | 1013.6 |
| 20260509175832 | 18 | 73 | 0.0 | 0.0 | 0.00 | 5.92 | 5.92 | 99 | 1013.7 |
| 20260509175328 | 18 | 138 | 0.0 | 0.0 | 0.00 | 5.92 | 5.92 | 99 | 1013.7 |
| 20260509174824 | 18 | 23 | 0.0 | 0.0 | 0.00 | 5.92 | 5.92 | 99 | 1013.8 |
| 20260509174319 | 18 | 162 | 1.6 | 1.6 | 0.00 | 5.92 | 5.92 | 99 | 1013.7 |
| 20260509173816 | 18 | 112 | 1.6 | 1.6 | 0.18 | 5.92 | 5.92 | 99 | 1013.1 |
| 20260509173311 | 18 | 108 | 0.0 | 0.0 | 0.18 | 5.92 | 5.92 | 99 | 1013.1 |
| 20260509172807 | 18 | 107 | 0.0 | 0.0 | 0.00 | 5.89 | 5.89 | 99 | 1013.5 |
| 20260509172306 | 18 | 79 | 0.0 | 0.0 | 0.00 | 5.89 | 5.89 | 99 | 1013.4 |
| 20260509171800 | 18 | 29 | 0.0 | 0.0 | 0.00 | 5.89 | 5.89 | 99 | 1013.5 |
| 20260509171256 | 18 | 95 | 0.0 | 0.0 | 0.00 | 5.89 | 5.89 | 99 | 1013.5 |
| 20260509170753 | 18 | 110 | 0.0 | 0.0 | 0.00 | 5.89 | 5.89 | 99 | 1013.5 |
| 20260509170249 | 18 | 238 | 0.0 | 0.0 | 0.00 | 5.89 | 5.89 | 99 | 1013.4 |
| 20260509165748 | 18 | 238 | 0.0 | 0.0 | 0.00 | 5.89 | 5.89 | 99 | 1013.3 |
| 20260509165243 | 18 | 238 | 0.0 | 0.0 | 0.00 | 5.89 | 5.89 | 99 | 1013.5 |
| 20260509164739 | 18 | 257 | 3.2 | 3.2 | 0.00 | 5.89 | 5.89 | 99 | 1013.6 |
| 20260509164235 | 18 | 65 | 1.6 | 1.6 | 0.13 | 5.89 | 5.89 | 99 | 1013.2 |
| 20260509163733 | 18 | 22 | 0.0 | 1.6 | 0.13 | 5.89 | 5.89 | 99 | 1013.7 |
| 20260509163229 | 18 | 153 | 1.6 | 1.6 | 0.00 | 5.87 | 5.87 | 99 | 1013.8 |
| 20260509162727 | 18 | 268 | 3.2 | 3.2 | 0.00 | 5.87 | 5.87 | 99 | 1013.5 |
| 20260509162221 | 18 | 31 | 0.0 | 1.6 | 0.00 | 5.87 | 5.87 | 99 | 1013.9 |
| 20260509161717 | 18 | 218 | 3.2 | 4.8 | 0.00 | 5.87 | 5.87 | 99 | 1013.9 |
| 20260509161215 | 18 | 91 | 0.0 | 0.0 | 0.00 | 5.87 | 5.87 | 99 | 1013.7 |
| 20260509160715 | 18 | 325 | 3.2 | 4.8 | 0.00 | 5.87 | 5.87 | 99 | 1013.8 |
| 20260509160211 | 18 | 66 | 0.0 | 1.6 | 0.00 | 5.87 | 5.87 | 99 | 1014.0 |
| 20260509155706 | 18 | 106 | 4.8 | 6.4 | 0.18 | 5.87 | 5.87 | 99 | 1013.7 |
| 20260509155203 | 18 | 27 | 0.0 | 0.0 | 0.18 | 5.87 | 5.87 | 99 | 1013.7 |
| 20260509154659 | 18 | 76 | 0.0 | 0.0 | 0.13 | 5.84 | 5.84 | 99 | 1013.6 |
| 20260509154157 | 18 | 183 | 3.2 | 3.2 | 0.30 | 5.84 | 5.84 | 99 | 1014.1 |
| 20260509153653 | 18 | 65 | 1.6 | 1.6 | 0.30 | 5.82 | 5.82 | 99 | 1014.2 |
| 20260509153150 | 18 | 65 | 0.0 | 0.0 | 0.48 | 5.79 | 5.79 | 99 | 1014.0 |
| 20260509152646 | 18 | 144 | 3.2 | 3.2 | 0.48 | 5.77 | 5.77 | 99 | 1014.0 |
| 20260509152143 | 18 | 85 | 0.0 | 0.0 | 0.30 | 5.71 | 5.71 | 99 | 1013.7 |
| 20260509151639 | 18 | 14 | 0.0 | 1.6 | 0.30 | 5.69 | 5.69 | 99 | 1013.6 |
| 20260509151137 | 18 | 183 | 1.6 | 1.6 | 0.43 | 5.66 | 5.66 | 99 | 1013.4 |
| 20260509150635 | 18 | 114 | 1.6 | 1.6 | 0.61 | 5.64 | 5.64 | 99 | 1013.2 |
| 20260509150133 | 18 | 42 | 0.0 | 0.0 | 0.48 | 5.59 | 5.59 | 99 | 1013.0 |
| 20260509145629 | 18 | 84 | 0.0 | 1.6 | 0.30 | 5.54 | 5.54 | 99 | 1013.0 |
| 20260509145124 | 18 | 85 | 0.0 | 1.6 | 0.43 | 5.51 | 5.51 | 99 | 1013.1 |
| 20260509144621 | 18 | 323 | 3.2 | 3.2 | 0.66 | 5.49 | 5.49 | 99 | 1013.1 |
| 20260509144118 | 18 | 75 | 0.0 | 0.0 | 0.89 | 5.46 | 5.46 | 99 | 1013.2 |
| 20260509143615 | 18 | 79 | 0.0 | 1.6 | 1.19 | 5.38 | 5.38 | 99 | 1013.7 |
| 20260509143113 | 18 | 81 | 0.0 | 1.6 | 1.27 | 5.31 | 5.31 | 99 | 1013.5 |
| 20260509142613 | 18 | 259 | 0.0 | 0.0 | 0.79 | 5.18 | 5.18 | 99 | 1013.9 |
| 20260509142110 | 18 | 308 | 1.6 | 1.6 | 0.61 | 5.11 | 5.11 | 99 | 1013.9 |
| 20260509141606 | 18 | 22 | 4.8 | 6.4 | 0.43 | 5.05 | 5.05 | 99 | 1013.1 |
| 20260509141103 | 18 | 76 | 1.6 | 1.6 | 0.43 | 5.00 | 5.00 | 99 | 1012.9 |
| 20260509140600 | 18 | 67 | 0.0 | 1.6 | 0.48 | 4.98 | 4.98 | 99 | 1013.2 |
| 20260509140058 | 18 | 272 | 3.2 | 4.8 | 0.43 | 4.95 | 4.95 | 99 | 1012.8 |
| 20260509135555 | 18 | 50 | 0.0 | 0.0 | 0.43 | 4.90 | 4.90 | 99 | 1012.7 |
| 20260509135053 | 18 | 106 | 0.0 | 0.0 | 1.07 | 4.88 | 4.88 | 99 | 1012.6 |
| 20260509134549 | 18 | 122 | 0.0 | 0.0 | 1.27 | 4.83 | 4.83 | 99 | 1012.8 |
| 20260509134047 | 18 | 124 | 0.0 | 0.0 | 1.02 | 4.72 | 4.72 | 99 | 1013.3 |
| 20260509133543 | 18 | 125 | 0.0 | 0.0 | 1.37 | 4.62 | 4.62 | 99 | 1013.7 |
| 20260509133041 | 18 | 125 | 0.0 | 0.0 | 0.89 | 4.52 | 4.52 | 99 | 1013.8 |
| 20260509132539 | 18 | 99 | 0.0 | 1.6 | 0.43 | 4.39 | 4.39 | 99 | 1013.8 |
| 20260509132037 | 18 | 50 | 0.0 | 0.0 | 0.61 | 4.37 | 4.37 | 99 | 1013.4 |
| 20260509131533 | 18 | 27 | 0.0 | 0.0 | 0.61 | 4.32 | 4.32 | 99 | 1013.4 |
| 20260509131030 | 18 | 50 | 0.0 | 0.0 | 0.48 | 4.27 | 4.27 | 99 | 1013.4 |
| 20260509130525 | 18 | 26 | 0.0 | 0.0 | 0.48 | 4.22 | 4.22 | 99 | 1013.9 |
| 20260509130023 | 18 | 25 | 0.0 | 0.0 | 0.48 | 4.19 | 4.19 | 99 | 1013.8 |
| 20260509125519 | 18 | 262 | 0.0 | 1.6 | 0.48 | 4.14 | 4.14 | 99 | 1014.1 |
| 20260509125016 | 18 | 42 | 0.0 | 0.0 | 0.61 | 4.11 | 4.11 | 99 | 1013.7 |
| 20260509124513 | 18 | 75 | 1.6 | 1.6 | 0.43 | 4.06 | 4.06 | 99 | 1013.3 |
| 20260509124010 | 18 | 49 | 1.6 | 1.6 | 0.43 | 4.01 | 4.01 | 99 | 1013.6 |
| 20260509123508 | 18 | 107 | 0.0 | 0.0 | 0.79 | 3.99 | 3.99 | 99 | 1013.6 |
| 20260509123003 | 18 | 277 | 0.0 | 0.0 | 1.07 | 3.94 | 3.94 | 99 | 1013.3 |
| 20260509122500 | 18 | 50 | 0.0 | 0.0 | 1.98 | 3.86 | 3.86 | 99 | 1013.3 |
| 20260509121957 | 18 | 174 | 3.2 | 3.2 | 3.53 | 3.76 | 3.76 | 99 | 1012.5 |
| 20260509121454 | 18 | 48 | 3.2 | 3.2 | 6.55 | 3.53 | 3.53 | 99 | 1012.6 |
| 20260509120952 | 18 | 96 | 6.4 | 9.7 | 9.42 | 3.17 | 3.17 | 99 | 1013.1 |
| 20260509120449 | 18 | 35 | 4.8 | 9.7 | 9.47 | 2.44 | 2.44 | 99 | 1013.2 |
| 20260509115947 | 18 | 122 | 4.8 | 4.8 | 7.01 | 1.60 | 1.60 | 99 | 1013.0 |
| 20260509115444 | 19 | 283 | 4.8 | 4.8 | 2.39 | 0.81 | 0.81 | 99 | 1012.2 |
| 20260509114941 | 20 | 300 | 8.0 | 16.1 | 0.00 | 0.41 | 0.41 | 99 | 1012.8 |
| 20260509114440 | 20 | 22 | 3.2 | 4.8 | 0.00 | 0.41 | 0.41 | 99 | 1012.5 |
| 20260509113939 | 20 | 18 | 1.6 | 1.6 | 0.00 | 0.41 | 0.41 | 99 | 1011.2 |
| 20260509113436 | 20 | 170 | 1.6 | 1.6 | 0.00 | 0.41 | 0.41 | 99 | 1010.4 |
| 20260509112933 | 20 | 111 | 0.0 | 1.6 | 0.00 | 0.41 | 0.41 | 99 | 1010.2 |
| 20260509112430 | 20 | 178 | 3.2 | 3.2 | 0.00 | 0.41 | 0.41 | 99 | 1010.4 |
| 20260509111927 | 20 | 354 | 0.0 | 1.6 | 0.00 | 0.41 | 0.41 | 99 | 1010.6 |
| 20260509111424 | 20 | 353 | 0.0 | 0.0 | 0.00 | 0.41 | 0.41 | 99 | 1010.9 |
| 20260509110922 | 20 | 353 | 0.0 | 0.0 | 0.00 | 0.41 | 0.41 | 99 | 1010.7 |
| 20260509110417 | 20 | 352 | 0.0 | 0.0 | 0.00 | 0.41 | 0.41 | 99 | 1010.5 |
| 20260509105916 | 20 | 352 | 0.0 | 0.0 | 0.00 | 0.41 | 0.41 | 99 | 1010.6 |
| 20260509105414 | 20 | 349 | 1.6 | 1.6 | 0.00 | 0.41 | 0.41 | 99 | 1010.2 |
| 20260509104910 | 20 | 47 | 0.0 | 0.0 | 0.00 | 0.41 | 0.41 | 99 | 1010.4 |